{"data":{"norad_id":59755,"intl_designator":"2024-091C","name":"STARLINK-11132 [DTC]","alt_names":[],"object_type":"PAYLOAD","status":"ACTIVE","operator":null,"country":"US","launch_date":"2024-05-14","launch_site_code":"AFWTR","launch_vehicle":null,"mission":null,"orbit_class":"UNKNOWN","rcs_meters":null,"size_class":null,"mass_kg":null,"dimensions":null,"purposes":["comms"],"wikipedia_slug":null,"has_3d_model":false,"image_url":null,"decayed_at":null,"tle_current":{"epoch":"2026-05-24T14:30:13.110624Z","epoch_age_seconds":108948,"freshness":"FRESH","line1":"1 59755U 24091C   26144.60431841  .00001745  00000+0  19258-4 0  9996","line2":"2 59755  53.1585 192.2496 0001257  82.0558 278.0602 15.69712142117435","mean_motion":15.69712142,"eccentricity":0.0001257,"inclination_deg":53.1585,"raan_deg":192.2496,"arg_perigee_deg":82.0558,"mean_anomaly_deg":278.0602,"bstar":1.9258e-5,"rev_number":11743,"period_min":91.736565034483,"perigee_km":358.87367213973,"apogee_km":360.5675695456,"semimajor_km":6737.8576208427,"source":"CELESTRAK","updated_at":"2026-05-25T13:38:19.055818Z"}}}